Home   Weather   Douala   Past weeks

Flag for Cameroon Past Weather in Douala, Cameroon — Yesterday and Last 2 Weeks

84 °F

Scattered clouds.

Feels Like: 92 °F
Forecast: 76 / 86 °F
Wind: 3 mph from West

Location: Douala Obs.

Current Time: Oct 21, 2016 at 5:41:57 PM

Latest Report: Oct 21, 2016 at 5:00 PM

Visibility: N/A

Pressure: 29.80 "Hg

Humidity: 74%

Dew Point: 75 °F

Location of DoualaLocation

Past Weather in Douala — Graph


Douala Temperature Yesterday

Maximum temperature yesterday: 90 °F (at 2:00 PM)
Minimum temperature yesterday: 72 °F (at 2:00 AM)
Average temperature yesterday: 79 °F

High & Low Weather Summary for the Past Weeks

High90 °F (Oct 7, 1:00 PM)100% (Oct 7, 7:00 AM)29.95 "Hg (Oct 7, 7:00 AM)
Low72 °F (Oct 20, 2:00 AM)59% (Oct 21, 12:00 PM)29.71 "Hg (Oct 6, 4:00 PM)
Average80 °F87%29.85 "Hg
* Reported Oct 6 4:00 PM — Oct 21 4:00 PM, Douala, Weather by CustomWeather, © 2016

Note: Actual official high and low records may vary slightly from our data, if they occured in-between our weather recording intervals... More about our weather records


Douala Weather History for the Previous 24 Hours

Scroll right to see more
Time TempWeatherWind HumidityBarometerVisibility
4:00 PM
Fri, Oct 21
86 °FScattered clouds.8 mph75%29.77 "HgN/A
2:00 PM88 °FPartly sunny.5 mph66%29.80 "HgN/A
1:00 PM90 °FBroken clouds.8 mph59%29.83 "HgN/A
12:00 PM88 °FBroken clouds.6 mph59%29.86 "HgN/A
11:00 AM86 °FBroken clouds.5 mph66%29.89 "HgN/A
10:00 AM81 °FBroken clouds.6 mph79%29.92 "HgN/A
9:00 AM79 °FBroken clouds.5 mph84%29.95 "HgN/A
8:00 AM79 °FThunderstorms. Broken clouds.7 mph89%29.92 "HgN/A
7:00 AM75 °FThunderstorms. Broken clouds.3 mph100%29.89 "HgN/A
6:00 AM75 °FThunderstorms. Passing clouds.2 mph100%29.86 "HgN/A
5:00 AM77 °FThunderstorms. Passing clouds.2 mph94%29.86 "HgN/A
4:00 AM77 °FPassing clouds.No wind94%29.86 "HgN/A
3:00 AM77 °FPassing clouds.2 mph94%29.86 "HgN/A
2:00 AM77 °FThunderstorms. Partly cloudy.1 mph94%29.83 "HgN/A
1:00 AM77 °FThunderstorms. Partly cloudy.No wind100%29.83 "HgN/A
12:00 AM77 °FThunderstorms. Partly cloudy.No wind100%29.89 "HgN/A
11:00 PM
Thu, Oct 20
77 °FThunderstorms. Partly cloudy.1 mph100%29.86 "HgN/A
10:00 PM79 °FThunderstorms. Partly cloudy.3 mph94%29.89 "HgN/A
9:00 PM79 °FThunderstorms. Passing clouds.2 mph94%29.86 "HgN/A
8:00 PM79 °FThunderstorms. Passing clouds.2 mph94%29.86 "HgN/A
7:00 PM81 °FThunderstorms. Passing clouds.No wind89%29.80 "HgN/A
6:00 PM82 °FThunderstorms. Partly sunny.9 mph79%29.77 "HgN/A
5:00 PM84 °FScattered clouds.12 mph74%29.74 "HgN/A
Weather by CustomWeather, © 2016

See weather overviewHow to use our weather pages